Muskegon, MI

7:33 PM EST on February 26, 2017 (GMT -0500)
Muskegon County

Weather History for KMKG - February, 2014

Change the Weather History Date:

Wednesday, February 26, 2014

  Actual Average Record
Temperature  
Mean Temperature 13 °F 29 °F  
Max Temperature 17 °F 36 °F 66 °F (2000)
Min Temperature 8 °F 23 °F -12 °F (1963)
Degree Days  
Heating Degree Days 52 36  
Month to date heating degree days 1181 991  
Since 1 July heating degree days 5024 4663  
Cooling Degree Days 0 0  
Month to date cooling degree days 0 0  
Year to date cooling degree days 0 0  
Moisture  
Dew Point 2 °F    
Average Humidity 67    
Maximum Humidity 80    
Minimum Humidity 53    
Precipitation  
Precipitation 0.04 in 0.07 in 1.65 in (2009)
Month to date precipitation 1.80 1.68  
Year to date precipitation 5.12 3.71  
Snow  
Snow 1.10 in 0.50 in 6.50 in (1921)
Month to date snowfall 26.8 18.3  
Since 1 July snowfall 123.3 81.4  
Snow Depth 19.00 in    
Sea Level Pressure  
Sea Level Pressure 29.99 in    
Wind  
Wind Speed 17 mph (West)    
Max Wind Speed 35 mph    
Max Gust Speed 44 mph    
Visibility 2 miles    
Events Snow    
T = Trace of Precipitation, MM = Missing Value Source: NWS Daily Summary

Daily Weather History Graph

Daily Weather History Graph

Search for Another Location

Airport or City:

Trip Planner

Search our weather history database for the weather conditions in past years. The results will help you decide how hot, cold, wet, or windy it might be!

Date:

Astronomy

Feb. 26, 2014 Rise Set
Actual Time 7:25 AM EST 6:30 PM EST
Civil Twilight 6:57 AM EST 6:59 PM EST
Nautical Twilight 6:24 AM EST 7:32 PM EST
Astronomical Twilight 5:51 AM EST 8:05 PM EST
Moon 5:15 AM EST (2/26) 3:41 PM EST (2/26)
Length of Visible Light 12h 01m
Length of Day
11h 04m
Waning Crescent, 10% of the Moon is Illuminated
Feb 26
Waning Crescent
Mar 1
New
Mar 8
First Quarter
Mar 16
Full
Mar 23
Last Quarter

Hourly Weather History & Observations

Time (EST) Temp. Windchill Dew Point Humidity Pressure Visibility Wind Dir Wind Speed Gust Speed Precip Events Conditions
12:01 AM 12.0 °F -3.4 °F 3.9 °F 70% 30.08 in 1.8 mi NNW 13.8 mph 23.0 mph 0.00 in Snow Light Snow
12:55 AM 10.9 °F -3.4 °F 3.9 °F 73% 30.12 in 1.8 mi NW 11.5 mph - 0.00 in Snow Light Snow
1:27 AM 10.9 °F -3.4 °F 3.9 °F 73% 30.08 in 3.0 mi NW 11.5 mph 23.0 mph 0.00 in Snow Light Snow
1:42 AM 10.9 °F -5.4 °F 3.9 °F 73% 30.09 in 2.0 mi NW 15.0 mph - 0.00 in Snow Light Snow
1:51 AM 10.4 °F -7.2 °F 3.2 °F 73% 30.09 in 3.0 mi NW 17.3 mph - 0.00 in Snow Light Snow
1:55 AM 10.9 °F -5.4 °F 1.9 °F 67% 30.13 in 4.0 mi NW 15.0 mph - 0.00 in Snow Light Snow
2:36 AM 10.0 °F -8.6 °F 1.0 °F 67% 30.10 in 2.0 mi NNW 19.6 mph 24.2 mph 0.00 in Snow Light Snow
2:42 AM 10.0 °F -8.6 °F 3.0 °F 73% 30.10 in 0.8 mi NW 19.6 mph 26.5 mph 0.00 in Snow Light Snow
2:51 AM 10.4 °F -4.8 °F 1.4 °F 67% 30.10 in 1.5 mi NW 12.7 mph 26.5 mph 0.00 in Snow Light Snow
2:55 AM 10.0 °F -4.5 °F 1.9 °F 70% 30.14 in 3.0 mi NW 11.5 mph 23.0 mph 0.00 in Snow Light Snow
3:10 AM 10.0 °F -7.1 °F -0.9 °F 61% 30.10 in 6.0 mi NNW 16.1 mph 23.0 mph 0.00 in Snow Blowing Snow
3:36 AM 9.0 °F -6.6 °F -0.0 °F 67% 30.09 in 2.5 mi NW 12.7 mph - 0.00 in Snow Light Snow
3:46 AM 9.0 °F -5.9 °F 1.0 °F 70% 30.10 in 1.2 mi NW 11.5 mph - 0.00 in Snow Light Snow
3:55 AM 9.0 °F -7.3 °F 1.9 °F 73% 30.14 in 2.5 mi NW 13.8 mph - 0.00 in Snow Light Snow
4:09 AM 9.0 °F -7.3 °F 1.0 °F 70% 30.09 in 1.5 mi NW 13.8 mph 21.9 mph 0.00 in Snow Light Snow
4:34 AM 9.0 °F -3.2 °F 1.9 °F 73% 30.09 in 3.0 mi NW 8.1 mph - 0.01 in Snow Light Snow
4:55 AM 9.0 °F -5.1 °F -0.0 °F 67% 30.14 in 2.5 mi WNW 10.4 mph - 0.01 in Snow Light Snow
5:09 AM 8.1 °F -9.0 °F 1.0 °F 73% 30.10 in 1.2 mi NW 15.0 mph 19.6 mph 0.00 in Snow Light Snow
5:20 AM 8.1 °F -6.2 °F 1.9 °F 76% 30.10 in 0.8 mi NW 10.4 mph - 0.00 in Snow Light Snow
5:24 AM 8.1 °F -6.2 °F 1.9 °F 76% 30.10 in 1.0 mi NW 10.4 mph - 0.00 in Snow Light Snow
5:33 AM 8.1 °F -6.2 °F 1.0 °F 73% 30.10 in 3.0 mi NW 10.4 mph - 0.00 in Snow Light Snow
5:55 AM 8.1 °F -7.0 °F -0.0 °F 70% 30.15 in 1.8 mi WNW 11.5 mph - 0.00 in Snow Light Snow
6:20 AM 8.1 °F -5.3 °F 1.0 °F 73% 30.10 in 3.0 mi WNW 9.2 mph 19.6 mph 0.00 in Snow Light Snow
6:55 AM 8.1 °F -6.2 °F -0.0 °F 70% 30.14 in 1.5 mi WNW 10.4 mph 20.7 mph 0.00 in Snow Light Snow
7:18 AM 8.1 °F -5.3 °F -0.0 °F 70% 30.10 in 2.5 mi WNW 9.2 mph - 0.00 in Snow Light Snow
7:30 AM 8.1 °F -6.2 °F -0.0 °F 70% 30.09 in 1.2 mi WNW 10.4 mph - 0.00 in Snow Light Snow
7:36 AM 8.1 °F -6.2 °F -0.0 °F 70% 30.09 in 3.0 mi WNW 10.4 mph - 0.00 in Snow Light Snow
7:47 AM 8.1 °F -7.0 °F -0.9 °F 67% 30.09 in 2.5 mi WNW 11.5 mph 19.6 mph 0.00 in Snow Light Snow
7:55 AM 8.1 °F -6.2 °F -0.9 °F 67% 30.13 in 2.5 mi WNW 10.4 mph - 0.00 in Snow Light Snow
8:55 AM 9.0 °F -5.9 °F -2.0 °F 61% 30.13 in 3.0 mi WNW 11.5 mph - 0.00 in Snow Light Snow
9:06 AM 8.1 °F -8.4 °F -0.9 °F 67% 30.09 in 1.5 mi WNW 13.8 mph - 0.00 in Snow Light Snow
9:13 AM 8.1 °F -5.3 °F -0.0 °F 70% 30.09 in 3.0 mi WNW 9.2 mph - 0.00 in Snow Light Snow
9:25 AM 9.0 °F -6.6 °F -0.9 °F 64% 30.09 in 7.0 mi West 12.7 mph - 0.00 in Snow Light Snow
9:55 AM 10.0 °F -6.5 °F -0.0 °F 64% 30.13 in 2.5 mi West 15.0 mph - 0.01 in Snow Light Snow
10:02 AM 10.0 °F -5.9 °F -0.0 °F 64% 30.09 in 1.5 mi WNW 13.8 mph - 0.00 in Snow Light Snow
10:06 AM 9.0 °F -7.3 °F -0.9 °F 64% 30.08 in 3.0 mi West 13.8 mph - 0.00 in Snow Light Snow
10:11 AM 9.0 °F -7.3 °F -0.9 °F 64% 30.08 in 2.0 mi West 13.8 mph - 0.00 in Snow Light Snow
10:39 AM 10.0 °F -7.1 °F -0.0 °F 64% 30.07 in 2.0 mi West 16.1 mph - 0.00 in Snow Light Snow
10:47 AM 10.0 °F -4.5 °F 1.0 °F 67% 30.07 in 1.2 mi West 11.5 mph - 0.00 in Snow Light Snow
10:55 AM 10.0 °F -6.5 °F 1.0 °F 67% 30.11 in 1.8 mi WSW 15.0 mph 21.9 mph 0.00 in Snow Light Snow
11:02 AM 10.0 °F -7.6 °F 1.0 °F 67% 30.06 in 1.0 mi West 17.3 mph 23.0 mph 0.00 in Snow Light Snow
11:26 AM 10.0 °F -5.2 °F -0.9 °F 61% 30.05 in 2.0 mi West 12.7 mph - 0.00 in Snow Light Snow
11:44 AM 10.0 °F -4.5 °F 1.0 °F 67% 30.05 in 1.0 mi West 11.5 mph - 0.00 in Snow Light Snow
11:55 AM 10.0 °F -3.7 °F 1.9 °F 70% 30.08 in 1.2 mi West 10.4 mph - 0.00 in Snow Light Snow
12:34 PM 10.0 °F -7.1 °F 1.0 °F 67% 30.01 in 2.0 mi SW 16.1 mph 21.9 mph 0.00 in Snow Light Snow
12:42 PM 10.0 °F -8.6 °F 1.9 °F 70% 30.01 in 1.2 mi SW 19.6 mph - 0.00 in Snow Light Snow
12:55 PM 10.0 °F -7.6 °F 1.9 °F 70% 30.04 in 2.0 mi SW 17.3 mph - 0.00 in Snow Light Snow
1:04 PM 10.0 °F -8.1 °F 1.0 °F 67% 29.99 in 1.5 mi SW 18.4 mph - 0.00 in Snow Light Snow
1:23 PM 10.0 °F -9.1 °F 1.0 °F 67% 29.97 in 2.0 mi SW 20.7 mph - 0.00 in Snow Light Snow
1:55 PM 12.0 °F -6.5 °F 1.9 °F 64% 29.98 in 2.0 mi SW 20.7 mph 27.6 mph 0.00 in Snow Light Snow
2:16 PM 12.0 °F -7.3 °F 1.9 °F 64% 29.91 in 4.0 mi SW 23.0 mph 29.9 mph 0.00 in Snow Light Snow
2:55 PM 12.9 °F -5.3 °F 3.9 °F 67% 29.91 in 4.0 mi SW 20.7 mph 29.9 mph 0.00 in Snow Blowing Snow
3:02 PM 12.9 °F -5.7 °F 3.0 °F 65% 29.87 in 4.0 mi SW 21.9 mph 31.1 mph N/A Snow Blowing Snow
3:28 PM 12.9 °F -6.5 °F 3.9 °F 67% 29.84 in 4.0 mi SW 24.2 mph 33.4 mph N/A Snow Blowing Snow
3:55 PM 14.0 °F -5.1 °F 3.0 °F 62% 29.86 in 4.0 mi SW 24.2 mph - N/A Snow Blowing Snow
4:27 PM 14.0 °F -4.7 °F 5.0 °F 67% 29.79 in 4.0 mi SW 23.0 mph 32.2 mph N/A Snow Blowing Snow
4:55 PM 15.1 °F -2.5 °F 3.9 °F 61% 29.82 in 4.0 mi SW 20.7 mph 31.1 mph N/A Snow Blowing Snow
5:55 PM 15.1 °F -5.0 °F 3.9 °F 61% 29.75 in 3.0 mi SSW 28.8 mph 33.4 mph N/A Snow Blowing Snow
6:36 PM 15.1 °F -4.7 °F 3.9 °F 61% 29.67 in 3.0 mi SW 27.6 mph 41.4 mph N/A Snow Blowing Snow
6:55 PM 15.1 °F -4.4 °F 5.0 °F 64% 29.71 in 3.0 mi SW 26.5 mph 36.8 mph N/A Snow Blowing Snow
7:55 PM 16.0 °F -2.5 °F 1.9 °F 54% 29.70 in 3.0 mi WSW 24.2 mph 39.1 mph N/A Snow Blowing Snow
8:55 PM 15.1 °F -4.7 °F 3.9 °F 61% 29.69 in 3.0 mi WSW 27.6 mph 43.7 mph 0.00 in Snow Blowing Snow
9:21 PM 15.1 °F -4.4 °F 6.1 °F 68% 29.64 in 1.8 mi WSW 26.5 mph 35.7 mph 0.00 in Snow Light Snow
9:55 PM 15.1 °F -2.9 °F 7.0 °F 70% 29.66 in 1.2 mi West 21.9 mph 33.4 mph 0.00 in Snow Light Snow
10:43 PM 16.0 °F -2.1 °F 10.0 °F 77% 29.58 in 0.8 mi West 23.0 mph 29.9 mph 0.00 in Snow Light Snow
10:55 PM 16.0 °F 0.1 °F 10.9 °F 81% 29.61 in 0.5 mi West 17.3 mph 32.2 mph 0.00 in Snow Snow
11:46 PM 17.1 °F 0.1 °F 10.0 °F 74% 29.54 in 1.0 mi West 20.7 mph 31.1 mph 0.00 in Snow Light Snow
11:53 PM 17.6 °F 3.7 °F 10.4 °F 73% 29.53 in 0.8 mi West 13.8 mph 29.9 mph 0.00 in Snow Light Snow
11:55 PM 17.1 °F 2.0 °F 10.9 °F 77% 29.57 in 0.8 mi West 16.1 mph 29.9 mph 0.00 in Snow Light Snow